Regional Weather Roundup
Issued by NWS Burlington, VT

Current Version | Previous Version | Text Only | Print | Product List | Glossary On
Versions: 1 2 3 4 5 6 7 8 9 10 11 12 13 14 15 16 17 18 19 20 21 22 23 24 25 26 27 28 29 30 31 32 33 34 35 36 37 38 39 40 41 42 43 44 45 46 47 48 49 50
085
ASUS41 KBTV 231110
RWRBTV
VERMONT REGIONAL WEATHER ROUNDUP
NATIONAL WEATHER SERVICE BURLINGTON VT
700 AM EDT SAT JUL 23 2016

NOTE: "FAIR" INDICATES FEW OR NO CLOUDS BELOW 12,000 FEET WITH NO
SIGNIFICANT WEATHER AND/OR OBSTRUCTIONS TO VISIBILITY.

* THESE REPORTS ARE NOT UNDER NWS QUALITY CONTROL AND/OR DO NOT
  REPORT WEATHER SUCH AS PRECIPITATION AND FOG.

VTZ001>019-231200-
_____VERMONT_____


CITY           SKY/WX    TMP DP  RH WIND       PRES   REMARKS
BURLINGTON     PTSUNNY   69  64  84 CALM      29.79R
MONTPELIER     PTSUNNY   64  63  96 CALM      29.84S FOG
ST. JOHNSBURY*   N/A     64  62  93 MISG      29.78R
LYNDONVILLE*     N/A     63  62  97 CALM      29.82  FOG
MIDDLEBURY*    FAIR      64  60  87 CALM      29.80R
RUTLAND*       FAIR      64  61  90 E5        29.81S
HIGHGATE*      FAIR      66  65  97 CALM      29.78R
NEWPORT*       FAIR      64  63  95 CALM      29.80R
SUTTON*          N/A     63 N/A N/A MISG        N/A

_____LAKE CHAMPLAIN_____


CITY           SKY/WX    TMP DP  RH WIND       PRES   REMARKS
BURTON ISLAND*   N/A     70  66  88 S6          N/A
COLCHESTER RF*   N/A     70  66  88 S7          N/A
DIAMOND ISL*     N/A     68  64  88 SE2         N/A

$$

NYZ007-026>031-035-052-083-087-231200-
_____NORTHERN NEW YORK_____


CITY           SKY/WX    TMP DP  RH WIND       PRES   REMARKS
PLATTSBURGH    CLOUDY    68  65  90 CALM      29.77S
SARANAC LAKE   PTSUNNY   61  59  93 SW5       29.85S
MASSENA        MOSUNNY   69  63  81 W8        29.81R
OGDENSBURG*    SUNNY     70  64  83 SW3       29.82R
POTSDAM*       SUNNY     70  66  88 W6        29.82R
WATERTOWN      SUNNY     72  64  76 W7        29.85R
FT DRUM        MOSUNNY   71  64  78 W5        29.85R
ALBANY         MOSUNNY   74  61  63 W16       29.82R
GLENS FALLS    SUNNY     69  64  84 CALM      29.80R

$$
NHZ002-005-011-231200-
_____NEW HAMPSHIRE_____


CITY           SKY/WX    TMP DP  RH WIND       PRES   REMARKS
KEENE          SUNNY     66  64  94 CALM      29.81S
MT WASHINGTON  FOG       50  50 100 W38G51      N/A  VSB 0
PLYMOUTH       FAIR      64  62  93 CALM      29.78S
WHITEFIELD     CLOUDY    63  60  90 CALM      29.81R

$$

_____REGIONAL QUEBEC LOCATIONS_____


CITY           SKY/WX    TMP DP  RH WIND       PRES   REMARKS
MONTREAL       MOSUNNY   70  64  83 SW10      29.76S
QUEBEC CITY    PTSUNNY   66  63  88 W6        29.71R
SHERBROOKE     SUNNY     64  63  94 SW3       29.77R

_____REGIONAL ONTARIO LOCATIONS_____


CITY           SKY/WX    TMP DP  RH WIND       PRES   REMARKS
OTTAWA         MOSUNNY   68  64  88 NW15      29.80S

______KEY______
VSB  - VISIBILITY IN MILES
WCI  - WIND CHILL INDEX
HX   - HEAT INDEX
$$
NNNN




USA.gov is the U.S. government's official web portal to all federal, state and local government web resources and services.